Stations météo

réclame
Mon MeteoGroup
L9F, Pays-Bas (6207): Température de l'air & dewpoint: 18.02.2018 22:00:00 - 24.02.2018 22:00:00 (CET)L9F, Pays-Bas (6207): Vitesse du vent & gusts: 18.02.2018 22:00:00 - 24.02.2018 22:00:00 (CET)L9F, Pays-Bas (6207): Direction du vent: 18.02.2018 22:00:00 - 24.02.2018 22:00:00 (CET)L9F, Pays-Bas (6207): reduced air pressure: 18.02.2018 22:00:00 - 24.02.2018 22:00:00 (CET)L9F, Pays-Bas (6207): visibility: 18.02.2018 22:00:00 - 24.02.2018 22:00:00 (CET)
Date & Time tt [°C] td [°C] ff [km/h] ff [knt] fx [km/h] fx [knt] dd ppp [hPa] vv [km]
24.02.2018 22:00:00 1,2 -7,2 50 27 54 29 E 1031,2 10
24.02.2018 21:00:00 1,7 -5,6 50 27 54 29 E 1030,7 10
24.02.2018 20:00:00 1,8 -5,9 52 28 54 29 E 1030,5 10
24.02.2018 19:00:00 2,2 -4,7 54 29 54 29 E 1030,2 10
24.02.2018 18:00:00 2,3 -3,7 40 21 50 27 E 1029,8 50
24.02.2018 17:00:00 2,3 -3,5 52 28 50 27 E 1029,7 10
24.02.2018 16:00:00 2,0 -3,6 46 25 50 27 E 1029,8 10
24.02.2018 15:00:00 1,6 -3,5 42 23 50 27 E 1029,9 10
24.02.2018 14:00:00 1,2 -3,4 35 19 40 21 ESE 1029,9 10
24.02.2018 13:00:00 0,7 -3,4 37 20 43 23 ESE 1030,0 10
24.02.2018 12:00:00 0,4 -3,7 39 21 40 21 ESE 1030,1 10
24.02.2018 11:00:00 0,1 -4,0 46 25 50 27 ESE 1030,1 10
24.02.2018 10:00:00 0,3 -4,4 50 27 54 29 ESE 1029,7 10
24.02.2018 09:00:00 0,4 -5,5 52 28 50 27 ESE 1029,1 10
24.02.2018 08:00:00 0,3 -8,4 44 24 50 27 E 1028,3 10
24.02.2018 07:00:00 0,5 -6,9 46 25 50 27 E 1027,6 10
24.02.2018 06:00:00 0,4 -7,2 31 17 47 25 ESE 1027,4 10
24.02.2018 05:00:00 0,7 -7,1 41 22 40 21 ESE 1026,9 10
24.02.2018 04:00:00 0,6 -7,5 41 22 40 21 ESE 1026,7 10
24.02.2018 03:00:00 0,9 -5,5 41 22 50 27 ESE 1026,4 10
24.02.2018 02:00:00 0,9 -6,1 39 21 47 25 ESE 1026,4 10
24.02.2018 01:00:00 1,2 -6,0 42 23 50 27 ESE 1026,2 10
24.02.2018 00:00:00 1,3 -5,1 46 25 50 27 E 1025,9 10
23.02.2018 23:00:00 1,3 -5,7 34 18 50 27 ESE 1025,8 10
23.02.2018 22:00:00 1,7 -4,1 42 23 50 27 ESE 1025,5 10
23.02.2018 21:00:00 1,7 -5,1 52 28 50 27 E 1025,2 10
23.02.2018 20:00:00 1,9 -3,6 43 23 54 29 E 1024,9 40
23.02.2018 19:00:00 1,9 -3,9 50 27 50 27 E 1024,8 10
23.02.2018 18:00:00 1,8 -3,9 46 25 50 27 E 1024,7 10
23.02.2018 17:00:00 2,1 -4,6 42 23 43 23 E 1024,8 10
23.02.2018 16:00:00 1,7 -4,1 36 19 40 21 E 1025,1 23
23.02.2018 15:00:00 1,9 -4,6 35 19 36 19 E 1025,3 10
23.02.2018 14:00:00 1,8 -5,1 29 16 36 19 E 1025,6 32
23.02.2018 13:00:00 1,9 -4,8 35 19 36 19 E 1025,9 10
23.02.2018 12:00:00 2,2 -5,5 35 19 40 21 E 1026,4 10
23.02.2018 11:00:00 2,0 -5,4 37 20 40 21 E 1026,6 10
23.02.2018 10:00:00 2,2 -4,9 39 21 40 21 E 1026,4 10
23.02.2018 09:00:00 2,2 -4,4 25 14 36 19 E 1026,4 50
23.02.2018 08:00:00 2,1 -4,3 29 16 32 18 E 1026,2 10
23.02.2018 07:00:00 2,0 -4,1 28 15 32 18 E 1026,0 10
23.02.2018 06:00:00 2,2 -2,6 29 16 32 18 E 1025,6 10
23.02.2018 05:00:00 1,9 -3,2 22 12 29 16 E 1025,6 10
23.02.2018 04:00:00 2,5 -2,3 24 13 32 18 E 1025,5 10
23.02.2018 03:00:00 2,7 -1,5 22 12 29 16 ESE 1025,9 10
23.02.2018 02:00:00 3,0 -0,1 18 10 22 12 ESE 1026,0 9
23.02.2018 01:00:00 3,4 -0,3 13 7 22 12 ESE 1026,1 10
23.02.2018 00:00:00 3,2 0,0 21 11 22 12 ESE 1026,1 10
22.02.2018 23:00:00 3,2 1,0 22 12 32 18 ESE 1026,2 10
22.02.2018 22:00:00 4,1 1,5 28 15 32 18 E 1026,2 10
22.02.2018 21:00:00 4,4 1,5 26 14 25 14 NE 1026,0 10
22.02.2018 20:00:00 4,1 1,1 14 8 18 10 NNE 1026,1 21
22.02.2018 19:00:00 4,0 0,3 18 10 22 12 NE 1026,2 10
22.02.2018 18:00:00 3,7 -0,8 15 8 14 8 NE 1026,3 10
22.02.2018 17:00:00 3,9 -1,5 15 8 14 8 NE 1026,4 10
22.02.2018 16:00:00 4,7 -1,2 7 4 14 8 NE 1026,6 34
22.02.2018 15:00:00 4,2 -1,4 13 7 14 8 ENE 1026,9 10
22.02.2018 14:00:00 5,6 0,3 13 7 14 8 ENE 1027,3 10
22.02.2018 13:00:00 7,2 1,8 11 6 14 8 ENE 1027,8 10
22.02.2018 12:00:00 5,8 0,7 11 6 14 8 E 1028,0 10
22.02.2018 11:00:00 4,7 0,1 13 7 18 10 E 1027,9 10
22.02.2018 10:00:00 3,2 -2,2 13 7 18 10 E 1027,9 10
22.02.2018 09:00:00 3,1 -2,6 15 8 22 12 E 1027,8 10
22.02.2018 08:00:00 2,9 -3,1 16 9 22 12 E 1027,6 10
22.02.2018 07:00:00 3,1 -3,1 18 10 22 12 E 1027,5 10
22.02.2018 06:00:00 2,9 -3,0 18 10 22 12 E 1027,4 10
22.02.2018 05:00:00 3,0 -3,5 21 11 22 12 E 1027,4 10
22.02.2018 04:00:00 2,9 -3,5 14 8 25 14 E 1027,5 27
22.02.2018 03:00:00 2,9 -3,6 18 10 25 14 E 1027,6 10
22.02.2018 02:00:00 3,0 -2,7 18 10 25 14 ESE 1027,6 10
22.02.2018 01:00:00 3,1 -3,2 21 11 25 14 E 1027,9 10
22.02.2018 00:00:00 3,2 -3,7 18 10 25 14 E 1028,1 10
21.02.2018 23:00:00 3,2 -2,6 21 11 32 18 E 1028,1 10
21.02.2018 22:00:00 3,4 -1,6 29 16 32 18 E 1027,9 10
21.02.2018 21:00:00 3,3 -2,3 26 14 29 16 E 1027,8 10
21.02.2018 20:00:00 3,5 -2,1 26 14 29 16 E 1027,5 10
21.02.2018 19:00:00 4,2 -2,0 24 13 29 16 ENE 1027,3 10
21.02.2018 18:00:00 3,9 -1,9 22 12 25 14 ENE 1026,8 10
21.02.2018 17:00:00 3,6 -2,6 26 14 25 14 ENE 1026,7 10
21.02.2018 16:00:00 3,5 -2,9 21 11 25 14 ENE 1026,8 10
21.02.2018 15:00:00 3,5 -3,0 18 10 22 12 ENE 1027,2 10
21.02.2018 14:00:00 4,0 -1,7 16 9 18 10 ENE 1027,7 10
21.02.2018 13:00:00 5,8 1,0 4 2 11 6 E 1027,8 10
21.02.2018 12:00:00 4,5 -0,7 7 4 11 6 E 1027,9 15
21.02.2018 11:00:00 6,3 1,0 9 5 11 6 E 1028,0 10
21.02.2018 10:00:00 5,8 0,4 9 5 14 8 E 1027,5 10
21.02.2018 09:00:00 3,8 -1,3 11 6 18 10 E 1027,2 10
21.02.2018 08:00:00 3,8 -1,2 13 7 18 10 E 1026,9 10
21.02.2018 07:00:00 4,0 -0,5 18 10 22 12 E 1026,7 9
21.02.2018 06:00:00 4,8 0,3 15 8 18 10 ENE 1027,0 10
21.02.2018 05:00:00 4,2 -0,7 13 7 14 8 ENE 1027,0 10
21.02.2018 04:00:00 7,4 2,4 13 7 14 8 ENE 1027,1 10
21.02.2018 03:00:00 8,4 3,5 15 8 18 10 ENE 1026,8 10
21.02.2018 02:00:00 7,6 2,7 15 8 22 12 E 1026,6 10
21.02.2018 01:00:00 4,6 -0,2 18 10 25 14 E 1026,0 10
21.02.2018 00:00:00 4,5 -0,5 28 15 29 16 E 1025,7 10
20.02.2018 23:00:00 5,5 0,9 24 13 29 16 E 1025,7 10
20.02.2018 22:00:00 5,4 1,3 26 14 25 14 ENE 1025,1 10
20.02.2018 21:00:00 4,5 0,9 26 14 25 14 NE 1024,9 6
20.02.2018 20:00:00 4,4 1,1 24 13 25 14 NE 1024,2 5
20.02.2018 19:00:00 4,4 1,4 21 11 22 12 NE 1023,3 5
20.02.2018 18:00:00 4,4 1,2 18 10 18 10 ENE 1022,5 6
20.02.2018 17:00:00 5,0 0,6 18 10 18 10 ENE 1021,7 8
20.02.2018 16:00:00 5,8 1,6 11 6 14 8 E 1021,2 9
20.02.2018 15:00:00 6,6 2,5 9 5 14 8 E 1021,1 7
20.02.2018 14:00:00 4,3 0,0 13 7 14 8 SE 1020,9 6
20.02.2018 13:00:00 3,6 -0,2 11 6 14 8 SSE 1020,8 8
20.02.2018 12:00:00 3,7 0,2 13 7 14 8 SSE 1020,6 7
20.02.2018 11:00:00 3,7 0,4 13 7 14 8 S 1020,3 7
20.02.2018 10:00:00 3,6 0,3 11 6 14 8 SSE 1020,0 7
20.02.2018 09:00:00 3,7 -0,8 11 6 11 6 SSE 1019,6 8
20.02.2018 08:00:00 3,6 -0,5 15 8 14 8 SE 1019,3 7
20.02.2018 07:00:00 3,6 -0,4 13 7 14 8 SE 1019,1 7
20.02.2018 06:00:00 3,6 0,1 9 5 11 6 SE 1019,0 7
20.02.2018 05:00:00 3,8 0,2 8 4 7 4 SE 1019,3 7
20.02.2018 04:00:00 3,8 0,3 4 2 4 2 SE 1019,4 7
20.02.2018 03:00:00 3,9 0,4 4 2 7 4 - 1019,6 8
20.02.2018 02:00:00 3,9 0,6 5 3 11 6 S 1019,3 8
20.02.2018 01:00:00 3,9 0,3 15 8 14 8 S 1018,9 10
20.02.2018 00:00:00 4,0 0,0 15 8 18 10 S 1018,7 10
19.02.2018 23:00:00 3,8 0,0 18 10 18 10 SSE 1018,3 10
19.02.2018 22:00:00 3,8 0,5 15 8 14 8 SSE 1018,8 10
19.02.2018 21:00:00 3,6 0,7 15 8 18 10 S 1018,8 10
19.02.2018 20:00:00 3,6 1,4 15 8 22 12 S 1018,8 8
19.02.2018 19:00:00 3,5 1,5 21 11 22 12 S 1018,1 7
19.02.2018 18:00:00 3,3 1,8 22 12 25 14 S 1018,0 5
19.02.2018 17:00:00 3,1 1,6 22 12 29 16 S 1017,6 6
19.02.2018 16:00:00 2,9 1,4 22 12 25 14 SSE 1017,8 5
19.02.2018 15:00:00 3,0 1,5 26 14 25 14 S 1017,9 4,9
19.02.2018 14:00:00 3,2 1,8 22 12 29 16 S 1018,0 4,8
19.02.2018 13:00:00 3,3 2,1 26 14 25 14 S 1018,1 4,0
19.02.2018 12:00:00 3,6 2,6 26 14 25 14 S 1018,4 3,5
19.02.2018 11:00:00 4,4 3,6 26 14 25 14 SSW 1018,4 4,4
19.02.2018 10:00:00 4,6 3,5 26 14 25 14 SSW 1018,5 4,4
19.02.2018 09:00:00 4,8 3,6 28 15 29 16 SSW 1018,6 4,9
19.02.2018 08:00:00 4,9 3,7 28 15 29 16 SSW 1018,5 5
19.02.2018 07:00:00 5,0 3,9 22 12 25 14 SSW 1018,5 5
19.02.2018 06:00:00 4,7 3,3 24 13 29 16 SSW 1018,6 5
19.02.2018 05:00:00 4,7 3,1 26 14 25 14 SSW 1018,9 5
19.02.2018 04:00:00 5,0 3,3 26 14 29 16 SSW 1019,2 6
19.02.2018 03:00:00 4,9 3,1 28 15 29 16 SSW 1019,7 7
19.02.2018 02:00:00 4,8 2,6 29 16 32 18 SSW 1020,5 7
19.02.2018 01:00:00 5,1 2,7 31 17 32 18 SSW 1021,1 7
19.02.2018 00:00:00 5,1 2,9 28 15 29 16 SSW 1021,4 7
18.02.2018 23:00:00 4,9 3,1 22 12 25 14 SSW 1021,8 6
18.02.2018 22:00:00 5,0 3,3 26 14 25 14 SSW 1022,2 6

tt = Température de l'air
td = dewpoint
ff = Vitesse du vent
fx = gusts
dd = Direction du vent
ppp = reduced air pressure
vv = visibility

stations d'obs. à proximité